Location: Bacea
(45.9500°N, 22.6667°E)
Time: 01:25:18
(UTC+00:00)

Cosmos 1697 Rocket - Pass Details

Date: 16 October 2021
Orbit: 834 x 842 km, 71.0° (Epoch: 02 December)

Event Time Altitude Azimuth Distance (km) Brightness Sun altitude
Rises 17:35:32 0° 232° (SW) 3,388 6.5 -20.6°
Reaches altitude 10° 17:38:11 10° 241° (WSW) 2,457 5.8 -21.0°
Maximum altitude 17:43:18 35° 307° (NW) 1,332 4.2 -21.9°
Drops below altitude 10° 17:48:28 10° 12° (NNE) 2,466 5.1 -22.8°
Sets 17:51:09 0° 22° (NNE) 3,403 5.7 -23.2°
